DMSP 5D-2 F13 DEB

基本信息
目录编号:
42280
目录名称:
DMSP 5D-2 F13 DEB
国际标识:
1995-015GW
轨道中心:
EARTH
物体状态:
已陨落(2025-08-10)
发射日期:
1995-03-24 UTC
轨道信息
数据来源: 国际轨道数据
星历时间: 2025-08-09T08:53:12+0800
半长轴: 6686.39km
偏心率: 0.0029055
轨道倾角: 98.706°
近地点辐角: 288.658°
升交点赤经: 316.368°
平近点角: 71.153°
近地点: 288.827km
远地点: 327.683km
周期: 90.687分钟
每日圈数: 15.87871
详细信息
发射场:
AFWTR
轨道高度:
LEO
数据来源:
AOE Integration Group
参考系:
TEME
时间系统:
UTC
历元类型:
SGP4
2D轨道图
3D轨道图
轨道高度分析图
轨道倾角分析图
轨道综合分析图
查看轨道综合分析图